ATLAS 5 CENTAUR DEB, 44040

Orbit data source: Space-Track

ATLAS 5 CENTAUR DEB, 44040 is space debris in HEO originally from a launch on Wed, 17 Sep 2014 UTC launched from the Air Force Eastern Test Range (AFETR). Debris objects in space refer to the collection of defunct objects orbiting the Earth. Examples of debris include non-operational satellites, rocket bodies, and fragments generated from explosions, collisions, or faulty payload assembly.

Loading next visibility...
Identifier
44040, 2014-055CA
Orbit
HEO
Country
Flag of USUS
Related business
Flag of USUnited Launch Alliance/Lockheed Martin (US)
Manufacturer
Unknown
Mission
Spacecraft
Bus & Motor
Unknown
Mass
Unknown
Launch date (UTC)
2014-09-17 (11 years ago)
Launch vehicle
Unknown
Launch site
Air Force Eastern Test Range (AFETR)
Object type
Payload
Rocket body
Debris
Shape & HBR
Unknown shape, 1.1 m
Radar Cross Section
Small (<0.1 m²)

Expand to show TLE details & history
Last TLE update: 1 month ago

TLE from 1 month ago
0 ATLAS 5 CENTAUR DEB
1 44040U 14055CA  25261.56797522 -.00000047  00000-0  00000-0 0  9998
2 44040  19.8721 161.9910 4832628 133.8753 277.8111  1.88071397 46744
Epoch: 2025-09-18T13:37Z
TLE epoch observation values (Epoch: 2025-09-18T13:37:53.059Z)
Latitude
Longitude
-40.23664°
Altitude
25,607.644 km
Speed
3.248 km/s
True Right ascension
10h 47m 50s
True Declination
0° 00' 00"
Sunlit
Object was in daylight at epoch
Visualization orbit readout
Latitude
Unknown
Longitude
Unknown
Altitude
Unknown
Speed
Unknown
Apparent Right ascension
Unknown
Apparent Declination
Unknown
Sunlit
N/A
Visualization observer readout
Local Sidereal Time
01:28:28
Azimuth
Unknown
Elevation
Unknown
Doppler factor
Unknown
Orbital elements
Apogee altitude
34,746.528 km
Perigee altitude
7,948.821 km
Semi-major axis
27,725.811 km
Eccentricity
0.48326
Inclination
19.8721°
RAAN
161.991°
Arg. of periapsis
133.8753°
True anomaly
226.0771°
Mean anomaly
277.8111°
Eccentric anomaly
251.546°
Mean motion
0.47013 °/min
Orbital period
765.75 mins
BSTAR
0
Loading maneuver chart data...
Computing Atmospheric mass density...

Documentation

Showing up to 5 results
|